1496606400.89,19354,18.88,73906.8,4.89,4.23,4.19,0,*7B
1496606402.06,19355,18.88,73900.0,4.89,4.23,4.23,0,*73
1496606403.26,19356,18.88,73904.5,4.91,4.33,4.33,0,*79
1496606404.47,19357,18.81,73898.8,4.91,4.37,4.33,0,*7C
1496606405.68,19358,18.88,73902.0,4.89,4.31,4.33,0,*7C
1496606406.88,19359,18.88,73904.5,4.91,4.27,4.27,0,*76
1496606408.07,19360,18.88,73902.8,4.91,4.27,4.27,0,*7C
1496606409.28,19361,18.88,73898.0,4.91,4.27,4.23,0,*79
1496606410.48,19362,18.88,73896.5,4.93,4.23,4.23,0,*7C
1496606411.68,19363,18.88,73898.0,4.91,4.11,4.19,0,*77
1496606412.85,19364,18.88,73902.0,4.89,4.15,4.15,0,*71
1496606414.05,19365,18.88,73902.5,4.91,4.19,4.19,0,*79
1496606415.22,19366,18.88,73902.0,4.89,4.19,4.15,0,*7F
1496606416.42,19367,18.88,73902.0,4.91,4.23,4.23,0,*7B
1496606417.62,19368,18.88,73902.0,4.93,4.23,4.27,0,*72
1496606418.82,19369,18.88,73900.3,4.91,4.27,4.27,0,*75
1496606420.01,19370,18.88,73904.3,4.91,4.27,4.27,0,*7D
1496606421.21,19371,18.88,73902.5,4.91,4.27,4.27,0,*7C
1496606422.38,19372,18.88,73906.8,4.89,4.19,4.23,0,*7F
1496606423.58,19373,18.88,73908.8,4.91,4.27,4.23,0,*7A
1496606424.78,19374,18.88,73906.5,4.91,4.23,4.23,0,*79
1496606425.98,19375,18.88,73904.0,4.91,4.23,4.23,0,*78
1496606427.18,19376,18.88,73902.3,4.91,4.23,4.23,0,*7B
1496606428.38,19377,18.88,73904.0,4.91,4.23,4.23,0,*7A
1496606429.58,19378,18.88,73906.8,4.91,4.23,4.23,0,*75
1496606430.78,19379,18.88,73902.8,4.91,4.23,4.23,0,*74
1496606431.98,19380,18.88,73902.0,4.91,4.23,4.23,0,*72
1496606433.17,19381,18.88,73900.0,4.91,4.23,4.23,0,*73
1496606434.34,19382,18.88,73900.5,4.89,4.19,4.23,0,*70
1496606435.51,19383,18.88,73900.5,4.89,4.19,4.19,0,*78
1496606436.69,19384,18.88,73902.0,4.89,4.15,4.15,0,*7F
1496606437.89,19385,18.88,73904.5,4.93,4.19,4.23,0,*7C
1496606439.06,19386,18.88,73904.5,4.89,4.15,4.19,0,*71
1496606440.26,19387,18.88,73902.5,4.91,4.19,4.23,0,*7C
1496606441.45,19388,18.88,73906.3,4.91,4.19,4.19,0,*7A
1496606442.63,19389,18.88,73906.8,4.89,4.15,4.15,0,*72
1496606443.8,19390,18.88,73902.8,4.89,4.07,4.15,0,*79
1496606445.0,19391,18.88,73900.8,4.91,4.11,4.19,0,*7A
1496606446.17,19392,18.88,73902.3,4.89,4.15,4.19,0,*74
1496606447.37,19393,18.88,73900.3,4.91,4.19,4.23,0,*79
1496606448.55,19394,18.88,73900.5,4.89,4.07,4.07,0,*7E
1496606449.74,19395,18.88,73900.3,4.91,4.19,4.19,0,*76
1496606450.92,19396,18.88,73902.5,4.89,4.15,4.07,0,*7F
1496606452.09,19397,18.88,73904.0,4.89,4.15,4.15,0,*7D
1496606453.26,19398,18.88,73908.0,4.89,4.15,4.19,0,*7E
1496606454.46,19399,18.88,73908.3,4.91,4.27,4.23,0,*7E
1496606455.66,19400,18.88,73908.0,4.91,4.23,4.23,0,*7D
1496606456.84,19401,18.88,73906.3,4.89,4.07,4.15,0,*76
1496606458.03,19402,18.88,73906.8,4.91,4.11,4.19,0,*77
1496606459.21,19403,18.88,73906.8,4.89,4.15,4.15,0,*77
1496606460.38,19404,18.88,73904.0,4.89,4.07,4.15,0,*73
1496606461.56,19405,18.88,73904.8,4.89,4.15,4.15,0,*71
1496606462.73,19406,18.88,73904.5,4.89,4.15,4.15,0,*72
1496606463.93,19407,18.88,73904.3,4.91,4.19,4.11,0,*72
1496606465.12,19408,18.88,73896.5,4.91,4.11,4.19,0,*7D
1496606466.32,19409,18.88,73898.8,4.91,4.19,4.19,0,*74
1496606467.49,19410,18.88,73894.8,4.89,4.15,4.15,0,*75
1496606468.69,19411,18.88,73898.5,4.91,4.19,4.19,0,*7D
1496606469.86,19412,18.88,73902.0,4.89,4.15,4.15,0,*77
1496606471.04,19413,18.88,73900.3,4.89,4.07,4.15,0,*75
1496606472.21,19414,18.88,73896.3,4.89,4.15,4.07,0,*72
1496606473.39,19415,18.88,73898.0,4.89,4.07,4.07,0,*70
1496606474.59,19416,18.88,73898.5,4.91,4.19,4.11,0,*72
1496606475.76,19417,18.88,73896.0,4.89,4.07,4.15,0,*71
1496606476.96,19418,18.88,73902.5,4.91,4.19,4.15,0,*78
1496606478.15,19419,18.88,73898.0,4.91,4.19,4.19,0,*75
1496606479.33,19420,18.88,73902.8,4.89,4.15,4.15,0,*76
1496606480.5,19421,18.88,73900.8,4.89,4.15,4.19,0,*7B
1496606481.67,19422,18.88,73902.0,4.89,4.19,4.19,0,*74
1496606482.83,19423,18.88,73900.0,4.89,4.23,4.19,0,*7C
1496606484.0,19424,18.88,73902.8,4.89,4.19,4.15,0,*7E
1496606485.18,19425,18.88,73896.8,4.89,4.07,4.15,0,*70
1496606486.35,19426,18.88,73896.5,4.89,4.15,4.19,0,*7C
1496606487.52,19427,18.88,73894.8,4.89,4.23,4.19,0,*78
1496606488.69,19428,18.88,73894.5,4.89,4.19,4.23,0,*77
1496606489.86,19429,18.88,73894.8,4.89,4.23,4.23,0,*7F
1496606491.03,19430,18.88,73898.0,4.89,4.23,4.23,0,*77
1496606492.2,19431,18.88,73900.5,4.89,4.19,4.19,0,*76
1496606493.4,19432,18.88,73902.8,4.91,4.23,4.23,0,*7C
1496606494.57,19433,18.88,73902.5,4.89,4.19,4.15,0,*78
1496606495.75,19434,18.88,73898.8,4.89,4.15,4.07,0,*70
1496606496.95,19435,18.88,73902.0,4.89,4.05,4.07,0,*70
1496606498.12,19436,18.88,73902.8,4.89,4.15,4.15,0,*71
1496606499.3,19437,18.88,73906.3,4.89,4.15,4.15,0,*70
1496606500.47,19438,18.88,73904.3,4.89,4.15,4.15,0,*7F
1496606501.67,19439,18.88,73900.5,4.91,4.11,4.11,0,*77
1496606502.85,19440,18.88,73902.8,4.89,4.07,4.07,0,*70
1496606504.02,19441,18.88,73906.3,4.89,4.07,4.15,0,*72
1496606505.2,19442,18.88,73904.5,4.89,4.15,4.15,0,*72
1496606506.37,19443,18.88,73898.5,4.89,4.15,4.15,0,*73
1496606507.55,19444,18.88,73896.0,4.89,4.07,4.07,0,*74
1496606508.72,19445,18.88,73902.0,4.89,4.07,4.15,0,*76
1496606509.9,19446,18.88,73906.0,4.89,4.07,4.15,0,*75
1496606511.07,19447,18.88,73904.5,4.89,4.15,4.15,0,*77
1496606512.24,19448,18.88,73904.5,4.89,4.15,4.19,0,*74
1496606513.42,19449,18.88,73904.8,4.89,4.23,4.23,0,*79
1496606514.61,19450,18.88,73900.8,4.91,4.27,4.27,0,*78
1496606515.82,19451,18.88,73906.8,4.91,4.33,4.33,0,*79
1496606517.0,19452,18.88,73906.0,4.89,4.23,4.33,0,*72
1496606518.16,19453,18.88,73908.0,4.89,4.19,4.19,0,*72
1496606519.36,19454,18.88,73908.8,4.91,4.27,4.27,0,*7C
1496606520.53,19455,18.88,73902.5,4.89,4.19,4.19,0,*74
1496606521.7,19456,18.88,73902.0,4.89,4.23,4.19,0,*7E
1496606522.9,19457,18.88,73902.0,4.91,4.23,4.23,0,*7F
1496606524.07,19458,18.88,73898.5,4.89,4.19,4.15,0,*75
1496606525.24,19459,18.88,73892.0,4.89,4.07,4.15,0,*7B
1496606526.41,19460,18.88,73898.3,4.89,4.15,4.15,0,*72
1496606527.59,19461,18.88,73896.0,4.89,4.15,4.15,0,*73
1496606528.76,19462,18.88,73896.8,4.89,4.15,4.19,0,*7C
1496606529.93,19463,18.88,73900.5,4.89,4.19,4.19,0,*71
1496606531.09,19464,18.88,73902.3,4.89,4.23,4.19,0,*7F
1496606532.26,19465,18.88,73900.5,4.89,4.19,4.19,0,*77
1496606533.43,19466,18.88,73904.0,4.89,4.23,4.27,0,*70
1496606534.63,19467,18.88,73904.5,4.91,4.27,4.23,0,*78
1496606535.83,19468,18.88,73902.5,4.91,4.23,4.23,0,*73
1496606537.03,19469,18.88,73900.3,4.91,4.23,4.23,0,*72
1496606538.23,19470,18.88,73906.0,4.91,4.23,4.23,0,*7A
1496606539.39,19471,18.88,73900.5,4.89,4.19,4.27,0,*7F
1496606540.59,19472,18.88,73906.8,4.91,4.23,4.23,0,*78
1496606541.79,19473,18.88,73904.0,4.91,4.23,4.23,0,*79
1496606542.99,19474,18.88,73904.0,4.91,4.19,4.19,0,*7E
1496606544.16,19475,18.88,73902.8,4.89,4.15,4.15,0,*76
1496606545.33,19476,18.88,73902.3,4.89,4.15,4.15,0,*75
1496606546.51,19477,18.88,73902.8,4.89,4.15,4.15,0,*74
1496606547.68,19478,18.88,73900.8,4.89,4.07,4.11,0,*7C
1496606548.9,19479,18.88,73902.0,4.89,3.97,4.05,0,*76
1496606550.11,19480,18.88,73898.0,4.89,4.05,4.07,0,*7E
1496606551.31,19481,18.88,73902.3,4.89,4.05,4.15,0,*7C
1496606552.48,19482,18.88,73904.8,4.89,4.15,4.07,0,*7D
1496606553.66,19483,18.88,73904.0,4.89,4.15,4.15,0,*7F
1496606554.92,19484,18.88,73904.5,4.87,4.05,4.05,0,*76
1496606556.09,19485,18.88,73906.0,4.89,4.15,4.15,0,*79
1496606557.26,19486,18.88,73902.5,4.89,4.15,4.15,0,*7A
1496606558.44,19487,18.88,73902.5,4.89,4.15,4.15,0,*7B
1496606559.61,19488,18.88,73902.8,4.89,4.15,4.19,0,*78
1496606560.78,19489,18.88,73904.5,4.89,4.15,4.19,0,*79
1496606561.95,19490,18.88,73902.8,4.89,4.15,4.15,0,*7D
1496606563.13,19491,18.88,73900.3,4.89,4.15,4.07,0,*7F
1496606564.31,19492,18.88,73902.5,4.89,4.15,4.15,0,*7F
1496606565.48,19493,18.88,73906.3,4.89,4.19,4.15,0,*72
1496606566.65,19494,18.88,73900.5,4.89,4.23,4.15,0,*7C
1496606567.82,19495,18.88,73904.0,4.89,4.19,4.23,0,*71
1496606568.99,19496,18.88,73908.3,4.89,4.23,4.19,0,*72
1496606570.18,19497,18.88,73908.8,4.91,4.23,4.23,0,*73
1496606571.38,19498,18.88,73906.5,4.91,4.23,4.23,0,*7C
1496606572.58,19499,18.88,73910.3,4.91,4.23,4.23,0,*7D
1496606573.75,19500,18.88,73904.5,4.89,4.19,4.19,0,*75
1496606574.92,19501,18.88,73906.8,4.89,4.15,4.19,0,*78
1496606576.13,19502,18.88,73908.8,4.93,4.19,4.23,0,*75
1496606577.29,19503,18.88,73910.8,4.89,4.19,4.19,0,*76
1496606578.49,19504,18.88,73906.5,4.91,4.23,4.23,0,*78
1496606579.66,19505,18.88,73904.3,4.89,4.19,4.19,0,*70
1496606580.83,19506,18.88,73904.3,4.89,4.19,4.23,0,*7A
1496606582.03,19507,18.88,73908.0,4.91,4.27,4.27,0,*7B
1496606583.19,19508,18.88,73904.8,4.89,4.19,4.19,0,*7D
1496606584.36,19509,18.88,73904.8,4.89,4.23,4.19,0,*75
1496606585.56,19510,18.88,73904.3,4.91,4.23,4.23,0,*7D
1496606586.76,19511,18.88,73906.3,4.91,4.23,4.23,0,*7C
1496606587.96,19512,18.88,73904.8,4.91,4.23,4.23,0,*7F
1496606589.16,19513,18.88,73904.5,4.91,4.23,4.23,0,*7E
1496606590.33,19514,18.88,73904.8,4.89,4.23,4.23,0,*70
1496606591.5,19515,18.88,73906.5,4.89,4.23,4.23,0,*71
1496606592.7,19516,18.88,73906.3,4.91,4.23,4.23,0,*7B
1496606593.9,19517,18.88,73904.8,4.91,4.19,4.23,0,*73
1496606595.1,19518,18.88,73900.8,4.91,4.19,4.23,0,*7C
1496606596.29,19519,18.88,73902.0,4.91,4.19,4.23,0,*7D
1496606597.49,19520,18.88,73904.0,4.91,4.23,4.23,0,*7E
1496606598.66,19521,18.88,73906.5,4.89,4.19,4.19,0,*76
1496606599.86,19522,18.88,73910.3,4.91,4.23,4.23,0,*7C
1496606601.06,19523,18.88,73906.8,4.91,4.19,4.23,0,*74
1496606602.25,19524,18.88,73904.5,4.91,4.11,4.11,0,*7A
1496606603.43,19525,18.88,73902.3,4.89,4.07,4.07,0,*72
1496606604.63,19526,18.88,73902.3,4.91,4.07,4.11,0,*7F
1496606605.83,19527,18.88,73902.8,4.91,4.11,4.11,0,*79
1496606607.01,19528,18.88,73896.3,4.89,4.07,4.07,0,*7F
1496606608.22,19529,18.88,73900.0,4.91,4.07,4.07,0,*77
1496606609.39,19530,18.88,73898.8,4.89,4.07,4.07,0,*76
1496606610.57,19531,18.88,73900.5,4.89,4.15,4.15,0,*77
1496606611.77,19532,18.88,73898.3,4.91,4.11,4.11,0,*7D
1496606612.94,19533,18.88,73898.8,4.89,4.07,4.15,0,*76
1496606614.12,19534,18.88,73896.8,4.89,4.07,4.15,0,*71
1496606615.31,19535,18.88,73896.8,4.91,4.19,4.19,0,*7A
1496606616.49,19536,18.88,73896.8,4.89,4.07,4.07,0,*70
1496606617.67,19537,18.88,73896.8,4.89,4.07,4.07,0,*71
1496606618.86,19538,18.88,73902.0,4.91,4.11,4.19,0,*7F
1496606620.06,19539,18.88,73902.8,4.91,4.11,4.11,0,*76
1496606621.24,19540,18.88,73902.3,4.89,4.15,4.15,0,*71
1496606622.43,19541,18.81,73900.3,4.91,4.19,4.19,0,*79
1496606623.63,19542,18.88,73902.0,4.91,4.23,4.23,0,*7A
1496606624.8,19543,18.88,73902.8,4.89,4.19,4.19,0,*72
1496606625.99,19544,18.88,73898.8,4.91,4.19,4.19,0,*7C
1496606627.17,19545,18.88,73900.8,4.89,4.07,4.07,0,*74
1496606628.34,19546,18.88,73904.8,4.89,4.15,4.15,0,*77
1496606629.52,19547,18.88,73908.8,4.89,4.15,4.15,0,*76
1496606630.69,19548,18.88,73906.8,4.89,4.15,4.15,0,*79
1496606631.87,19549,18.88,73906.5,4.89,4.07,4.15,0,*7B
1496606633.04,19550,18.88,73904.3,4.89,4.07,4.15,0,*73
1496606634.22,19551,18.88,73906.8,4.89,4.07,4.07,0,*71
1496606635.4,19552,18.88,73908.0,4.89,4.07,4.07,0,*72
1496606636.57,19553,18.88,73906.3,4.89,4.15,4.15,0,*73
1496606637.77,19554,18.88,73906.8,4.91,4.19,4.11,0,*75
1496606638.95,19555,18.88,73906.3,4.89,4.15,4.07,0,*76
1496606640.12,19556,18.88,73902.3,4.89,4.07,4.15,0,*75
1496606641.29,19557,18.88,73898.8,4.89,4.15,4.15,0,*77
1496606642.47,19558,18.88,73904.0,4.89,4.07,4.15,0,*7B
1496606643.64,19559,18.88,73902.3,4.89,4.07,4.15,0,*7A
1496606644.82,19560,18.88,73904.5,4.89,4.15,4.15,0,*73
1496606645.99,19561,18.88,73902.5,4.89,4.15,4.15,0,*72
1496606647.16,19562,18.88,73900.3,4.89,4.19,4.15,0,*7D
1496606648.33,19563,18.88,73902.8,4.89,4.23,4.19,0,*79
1496606649.5,19564,18.88,73902.0,4.89,4.19,4.19,0,*77
1496606650.7,19565,18.88,73900.8,4.91,4.23,4.23,0,*7F
1496606651.86,19566,18.88,73902.0,4.89,4.19,4.19,0,*75
1496606653.06,19567,18.88,73902.8,4.91,4.23,4.23,0,*7D
1496606654.24,19568,18.88,73900.5,4.89,4.15,4.15,0,*7B
1496606655.41,19569,18.88,73902.8,4.89,4.15,4.15,0,*7A
1496606656.6,19570,18.88,73902.8,4.91,4.19,4.19,0,*7B
1496606657.8,19571,18.88,73900.3,4.91,4.23,4.23,0,*7A
1496606658.97,19572,18.88,73902.0,4.89,4.19,4.19,0,*70
1496606660.14,19573,18.88,73900.8,4.89,4.23,4.19,0,*78
1496606661.31,19574,18.88,73904.5,4.89,4.23,4.23,0,*76
1496606662.51,19575,18.88,73906.3,4.91,4.23,4.19,0,*77
1496606663.71,19576,18.88,73902.8,4.91,4.23,4.23,0,*7D
1496606664.88,19577,18.88,73904.0,4.89,4.23,4.23,0,*75
1496606666.08,19578,18.88,73904.8,4.91,4.23,4.37,0,*76
1496606667.29,19579,18.88,73908.0,4.91,4.23,4.33,0,*73
1496606668.48,19580,18.88,73906.5,4.91,4.23,4.23,0,*74
1496606669.68,19581,18.88,73906.5,4.91,4.27,4.27,0,*75
1496606670.89,19582,18.88,73900.8,4.93,4.27,4.27,0,*74
1496606672.09,19583,18.88,73904.8,4.89,4.19,4.31,0,*74
1496606673.3,19584,18.88,73904.5,4.93,4.27,4.33,0,*77
1496606674.47,19585,18.88,73902.3,4.89,4.23,4.23,0,*78
1496606675.67,19586,18.88,73904.8,4.91,4.27,4.23,0,*76
1496606676.87,19587,18.88,73904.0,4.91,4.27,4.27,0,*73
1496606678.07,19588,18.88,73906.0,4.91,4.23,4.23,0,*7C
1496606679.27,19589,18.88,73906.8,4.91,4.19,4.23,0,*74
1496606680.47,19590,18.88,73910.5,4.91,4.27,4.27,0,*75
1496606681.67,19591,18.88,73906.3,4.93,4.27,4.27,0,*76
1496606682.87,19592,18.88,73904.5,4.91,4.23,4.23,0,*77
1496606684.07,19593,18.88,73906.0,4.91,4.23,4.23,0,*76
1496606685.27,19594,18.88,73906.5,4.91,4.23,4.27,0,*75
1496606686.43,19595,18.88,73906.5,4.89,4.19,4.19,0,*79
1496606687.63,19596,18.88,73906.0,4.91,4.23,4.23,0,*73
1496606688.82,19597,18.88,73904.3,4.91,4.19,4.19,0,*72
1496606690.02,19598,18.88,73908.0,4.91,4.11,4.11,0,*7D
1496606691.2,19599,18.88,73904.3,4.89,4.07,4.07,0,*75
1496606692.4,19600,18.88,73904.0,4.91,4.23,4.19,0,*76
1496606693.6,19601,18.88,73908.8,4.91,4.23,4.23,0,*7E
1496606694.79,19602,18.81,73904.8,4.91,4.27,4.27,0,*7D
1496606695.99,19603,18.88,73906.5,4.91,4.27,4.27,0,*7C
1496606697.16,19604,18.88,73910.0,4.89,4.19,4.19,0,*72
1496606698.36,19605,18.88,73908.3,4.91,4.27,4.23,0,*7E
1496606699.56,19606,18.88,73908.0,4.91,4.27,4.27,0,*79
1496606700.73,19607,18.88,73904.8,4.89,4.23,4.23,0,*71
1496606701.9,19608,18.88,73910.5,4.89,4.19,4.19,0,*7E
1496606703.09,19609,18.88,73906.5,4.91,4.19,4.23,0,*7F
1496606704.29,19610,18.88,73906.0,4.91,4.19,4.11,0,*76
1496606705.48,19611,18.88,73906.0,4.91,4.19,4.11,0,*77
1496606706.68,19612,18.88,73908.5,4.91,4.11,4.11,0,*7C
1496606707.88,19613,18.88,73910.3,4.91,4.07,4.19,0,*72
1496606709.06,19614,18.88,73910.3,4.89,4.07,4.07,0,*73
1496606710.26,19615,18.88,73910.8,4.91,4.07,4.19,0,*74
1496606711.45,19616,18.88,73906.0,4.91,4.19,4.19,0,*78
1496606712.63,19617,18.88,73910.8,4.89,4.15,4.15,0,*70
1496606713.8,19618,18.88,73908.3,4.89,4.15,4.19,0,*73
1496606715.0,19619,18.88,73908.3,4.91,4.27,4.27,0,*77
1496606716.16,19620,18.88,73908.8,4.89,4.23,4.19,0,*7D
1496606717.36,19621,18.88,73910.0,4.91,4.33,4.27,0,*79
1496606718.56,19622,18.88,73906.0,4.91,4.27,4.27,0,*7F
1496606719.73,19623,18.81,73904.3,4.89,4.23,4.23,0,*77
1496606720.9,19624,18.88,73908.5,4.89,4.23,4.19,0,*79
1496606722.07,19625,18.88,73910.5,4.89,4.19,4.19,0,*71
1496606723.27,19626,18.81,73904.8,4.91,4.27,4.33,0,*7E
1496606724.46,19627,18.88,73906.8,4.95,4.37,4.37,0,*7E
1496606725.67,19628,18.88,73906.5,4.91,4.27,4.33,0,*70
1496606726.88,19629,18.88,73906.8,4.91,4.37,4.37,0,*74
1496606728.09,19630,18.88,73906.0,4.93,4.33,4.33,0,*7E
1496606729.29,19631,18.88,73904.3,4.91,4.27,4.23,0,*79
1496606730.5,19632,18.88,73904.3,4.91,4.27,4.33,0,*7B
1496606731.7,19633,18.88,73904.8,4.91,4.27,4.23,0,*7B
1496606732.9,19634,18.88,73904.0,4.91,4.27,4.23,0,*7C
1496606734.1,19635,18.88,73904.8,4.91,4.23,4.23,0,*79
1496606735.3,19636,18.81,73904.3,4.91,4.23,4.23,0,*7A
1496606736.5,19637,18.88,73904.8,4.91,4.23,4.23,0,*7B
1496606737.66,19638,18.88,73906.0,4.89,4.19,4.19,0,*7D
1496606738.86,19639,18.88,73904.8,4.91,4.23,4.23,0,*75
1496606740.06,19640,18.88,73904.0,4.91,4.23,4.23,0,*7B
1496606741.26,19641,18.88,73902.8,4.91,4.23,4.23,0,*7A
1496606742.46,19642,18.88,73902.3,4.91,4.23,4.27,0,*7D
1496606743.62,19643,18.88,73902.3,4.89,4.19,4.19,0,*71
1496606744.79,19644,18.88,73900.8,4.89,4.19,4.19,0,*76
1496606746.0,19645,18.88,73904.5,4.93,4.23,4.23,0,*7C
1496606747.16,19646,18.88,73904.3,4.89,4.19,4.19,0,*74
1496606748.36,19647,18.88,73904.0,4.91,4.23,4.23,0,*7C
1496606749.56,19648,18.88,73906.8,4.91,4.23,4.23,0,*73
1496606750.76,19649,18.88,73906.8,4.91,4.27,4.27,0,*72
1496606751.96,19650,18.88,73906.5,4.91,4.27,4.27,0,*7A
1496606753.15,19651,18.88,73906.8,4.91,4.23,4.23,0,*7B
1496606754.35,19652,18.88,73902.0,4.91,4.23,4.23,0,*78
1496606755.55,19653,18.88,73904.8,4.91,4.23,4.23,0,*79
1496606756.72,19654,18.88,73906.5,4.89,4.23,4.23,0,*77
1496606757.9,19655,18.88,73904.0,4.89,4.15,4.19,0,*7A
1496606759.07,19656,18.88,73906.5,4.89,4.15,4.19,0,*79
1496606760.26,19657,18.88,73910.5,4.91,4.19,4.23,0,*74
1496606761.46,19658,18.88,73906.8,4.91,4.19,4.23,0,*7B
1496606762.66,19659,18.88,73910.0,4.91,4.19,4.23,0,*7A
1496606763.85,19660,18.88,73910.0,4.91,4.19,4.19,0,*79
1496606765.02,19661,18.81,73904.5,4.89,4.19,4.19,0,*71
1496606766.19,19662,18.88,73912.3,4.89,4.15,4.15,0,*72
1496606767.39,19663,18.88,73910.8,4.91,4.19,4.19,0,*7A
1496606768.58,19664,18.88,73908.0,4.91,4.19,4.11,0,*75
1496606769.76,19665,18.88,73906.5,4.89,4.07,4.07,0,*75
1496606770.97,19666,18.88,73906.8,4.89,4.07,4.05,0,*74
1496606772.17,19667,18.88,73906.8,4.89,4.07,4.05,0,*75
1496606773.37,19668,18.88,73910.3,4.91,4.11,4.11,0,*71
1496606774.53,19669,18.88,73908.3,4.89,4.19,4.11,0,*71
1496606775.7,19670,18.88,73904.8,4.89,4.19,4.19,0,*71
1496606776.9,19671,18.88,73906.8,4.91,4.11,4.19,0,*71
1496606778.1,19672,18.88,73904.5,4.91,4.11,4.11,0,*7A
1496606779.33,19673,18.88,73902.3,4.89,4.05,4.05,0,*72
1496606780.5,19674,18.88,73904.0,4.89,4.07,4.15,0,*76
1496606781.68,19675,18.88,73906.8,4.89,4.15,4.15,0,*74
1496606782.85,19676,18.88,73910.0,4.89,4.15,4.15,0,*77
1496606784.02,19677,18.88,73906.3,4.89,4.15,4.15,0,*76
1496606785.2,19678,18.88,73910.3,4.89,4.15,4.15,0,*79
1496606786.38,19679,18.88,73906.0,4.89,4.07,4.07,0,*78
1496606787.55,19680,18.88,73908.0,4.89,4.15,4.15,0,*7E
1496606788.75,19681,18.88,73906.8,4.91,4.19,4.19,0,*76
1496606789.94,19682,18.88,73906.3,4.91,4.19,4.19,0,*75
1496606791.13,19683,18.88,73904.0,4.91,4.19,4.11,0,*7C
1496606792.33,19684,18.81,73906.3,4.91,4.07,4.11,0,*74
1496606793.54,19685,18.88,73906.0,4.89,4.07,4.05,0,*79
1496606794.71,19686,18.88,73908.0,4.89,4.07,4.07,0,*78
1496606795.92,19687,18.88,73906.8,4.89,4.05,4.07,0,*7B
1496606797.09,19688,18.88,73910.0,4.89,4.07,4.15,0,*75
1496606798.29,19689,18.88,73904.8,4.91,4.11,4.19,0,*76
1496606799.47,19690,18.88,73904.8,4.89,4.15,4.07,0,*7C
1496606800.64,19691,18.88,73906.8,4.89,4.15,4.15,0,*7E
1496606801.81,19692,18.81,73906.3,4.89,4.19,4.15,0,*71
1496606802.98,19693,18.88,73910.3,4.89,4.19,4.15,0,*70
1496606804.15,19694,18.88,73910.0,4.89,4.19,4.15,0,*77
1496606805.33,19695,18.88,73910.3,4.89,4.15,4.15,0,*7A
1496606806.5,19696,18.88,73910.0,4.89,4.15,4.15,0,*79
1496606807.68,19697,18.88,73906.0,4.89,4.15,4.15,0,*78
1496606808.85,19698,18.81,73904.3,4.89,4.07,4.15,0,*74
1496606810.03,19699,18.88,73906.3,4.89,4.15,4.07,0,*75
1496606811.2,19700,18.88,73906.5,4.89,4.15,4.15,0,*77
1496606812.4,19701,18.81,73902.8,4.91,4.11,4.19,0,*77
1496606813.57,19702,18.88,73906.8,4.89,4.15,4.15,0,*75
1496606814.75,19703,18.88,73908.0,4.89,4.15,4.15,0,*74
1496606815.94,19704,18.88,73904.5,4.91,4.19,4.19,0,*7A
1496606817.14,19705,18.88,73910.0,4.91,4.27,4.19,0,*76
1496606818.31,19706,18.88,73908.8,4.89,4.23,4.19,0,*78
1496606819.48,19707,18.88,73910.3,4.89,4.23,4.23,0,*70
1496606820.65,19708,18.88,73908.5,4.89,4.19,4.23,0,*76
1496606821.82,19709,18.88,73908.5,4.89,4.19,4.19,0,*7E
1496606823.01,19710,18.88,73910.0,4.91,4.23,4.27,0,*7B
1496606824.21,19711,18.88,73908.8,4.91,4.27,4.27,0,*7E
1496606825.41,19712,18.88,73910.3,4.91,4.27,4.27,0,*7D
1496606826.58,19713,18.88,73910.3,4.89,4.23,4.19,0,*7C
1496606827.78,19714,18.88,73912.8,4.91,4.27,4.27,0,*7B
1496606828.95,19715,18.81,73908.3,4.89,4.33,4.33,0,*73
1496606830.16,19716,18.88,73918.3,4.91,4.33,4.33,0,*79
1496606831.36,19717,18.88,73912.0,4.89,4.19,4.31,0,*7B
1496606832.53,19718,18.88,73914.3,4.89,4.27,4.23,0,*7A
1496606833.73,19719,18.88,73914.5,4.91,4.19,4.27,0,*7B
1496606834.92,19720,18.88,73912.0,4.91,4.19,4.23,0,*75
1496606836.1,19721,18.88,73914.3,4.89,4.15,4.19,0,*78
1496606837.29,19722,18.88,73908.8,4.91,4.19,4.19,0,*7E
1496606838.46,19723,18.88,73908.8,4.89,4.19,4.19,0,*76
1496606839.63,19724,18.88,73910.5,4.89,4.07,4.15,0,*72
1496606840.81,19725,18.88,73908.0,4.89,4.15,4.15,0,*70
1496606842.0,19726,18.88,73910.3,4.91,4.19,4.23,0,*73
1496606843.2,19727,18.88,73908.5,4.91,4.19,4.23,0,*72
1496606844.37,19728,18.88,73908.0,4.89,4.23,4.23,0,*7D
1496606845.57,19729,18.88,73910.8,4.91,4.27,4.27,0,*75
1496606846.77,19730,18.88,73908.8,4.91,4.23,4.27,0,*79
1496606847.94,19731,18.88,73912.8,4.89,4.23,4.23,0,*75
1496606849.17,19732,18.88,73908.8,4.89,4.31,4.31,0,*76
1496606850.37,19733,18.88,73908.8,4.91,4.23,4.23,0,*7E
1496606851.56,19734,18.88,73910.3,4.91,4.23,4.23,0,*79
1496606852.76,19735,18.88,73910.3,4.91,4.11,4.11,0,*78
1496606853.94,19736,18.88,73910.0,4.89,4.15,4.15,0,*72
1496606855.13,19737,18.88,73910.8,4.91,4.19,4.19,0,*7A
1496606856.31,19738,18.88,73908.0,4.89,4.15,4.15,0,*7C
1496606857.5,19739,18.88,73906.5,4.91,4.19,4.19,0,*74
1496606858.69,19740,18.88,73906.0,4.91,4.19,4.19,0,*7A
1496606859.87,19741,18.88,73906.5,4.89,4.15,4.15,0,*72
1496606861.04,19742,18.88,73904.8,4.89,4.15,4.19,0,*7D
1496606862.25,19743,18.88,73906.3,4.93,4.23,4.23,0,*7B
1496606863.41,19744,18.88,73906.5,4.89,4.19,4.19,0,*77
1496606864.61,19745,18.88,73902.3,4.91,4.23,4.19,0,*76
1496606865.78,19746,18.88,73904.5,4.89,4.15,4.15,0,*75
1496606866.98,19747,18.88,73904.8,4.91,4.19,4.19,0,*7D
1496606868.15,19748,18.88,73904.0,4.89,4.15,4.15,0,*7B
1496606869.35,19749,18.88,73904.3,4.91,4.11,4.19,0,*7B
1496606870.52,19750,18.88,73906.3,4.89,4.15,4.15,0,*72
1496606871.72,19751,18.81,73902.3,4.91,4.19,4.11,0,*72
1496606872.91,19752,18.88,73904.0,4.91,4.11,4.19,0,*71
1496606874.11,19753,18.88,73902.5,4.91,4.11,4.19,0,*70
1496606875.31,19754,18.88,73902.3,4.91,4.19,4.11,0,*77
1496606876.48,19755,18.88,73900.8,4.89,4.07,4.15,0,*74
1496606877.65,19756,18.81,73902.3,4.89,4.15,4.15,0,*74
1496606878.83,19757,18.81,73900.0,4.89,4.15,4.15,0,*75
1496606880.0,19758,18.81,73906.0,4.89,4.15,4.15,0,*7A
1496606881.2,19759,18.88,73910.0,4.91,4.19,4.19,0,*72
1496606882.37,19760,18.88,73906.5,4.89,4.15,4.19,0,*7D
1496606883.54,19761,18.88,73904.5,4.89,4.07,4.15,0,*73
1496606884.72,19762,18.88,73900.8,4.89,4.15,4.15,0,*73
1496606885.89,19763,18.88,73902.5,4.89,4.15,4.07,0,*71
1496606887.07,19764,18.88,73910.5,4.89,4.15,4.15,0,*75
1496606888.24,19765,18.88,73908.3,4.89,4.15,4.15,0,*74
1496606889.44,19766,18.88,73906.3,4.91,4.11,4.19,0,*76
1496606890.64,19767,18.88,73910.3,4.87,4.11,4.11,0,*78
1496606891.82,19768,18.88,73906.8,4.89,4.07,4.15,0,*7A
1496606892.99,19769,18.81,73904.5,4.89,4.15,4.15,0,*78
1496606894.17,19770,18.88,73904.3,4.89,4.07,4.15,0,*73
1496606895.34,19771,18.88,73904.0,4.89,4.15,4.15,0,*71
1496606896.51,19772,18.88,73904.8,4.89,4.15,4.15,0,*72
1496606897.71,19773,18.88,73904.0,4.91,4.19,4.19,0,*7A
1496606898.88,19774,18.88,73906.3,4.89,4.07,4.15,0,*77
1496606900.08,19775,18.81,73900.5,4.91,4.19,4.19,0,*7C
1496606901.27,19776,18.88,73904.5,4.91,4.19,4.19,0,*7F
1496606902.46,19777,18.81,73902.5,4.91,4.19,4.19,0,*7E
1496606903.64,19778,18.81,73902.5,4.89,4.15,4.15,0,*78
1496606904.84,19779,18.88,73908.8,4.91,4.27,4.23,0,*74
1496606906.03,19780,18.88,73904.0,4.91,4.23,4.27,0,*72
1496606907.21,19781,18.88,73906.3,4.89,4.23,4.23,0,*7E
1496606908.41,19782,18.88,73908.8,4.89,4.19,4.31,0,*77
1496606909.6,19783,18.88,73904.5,4.91,4.33,4.27,0,*70
1496606910.77,19784,18.88,73910.5,4.89,4.23,4.23,0,*7B
1496606911.95,19785,18.81,73904.5,4.89,4.19,4.23,0,*73
1496606913.14,19786,18.88,73906.8,4.91,4.27,4.27,0,*70
1496606914.34,19787,18.88,73906.8,4.91,4.23,4.23,0,*71
1496606915.54,19788,18.88,73910.8,4.91,4.23,4.23,0,*7E
1496606916.71,19789,18.81,73904.5,4.89,4.19,4.19,0,*76
1496606917.9,19790,18.88,73910.0,4.91,4.23,4.27,0,*73